| time (UTC) | temp C | wind direction | speed KPH | gust KPH | rain 1hr cm | rain 24hr cm | rain mn cm | humidity % | barometer mb |
| 20260505035518 | 12 | 224 | 0.0 | 1.6 | 0.00 | 0.00 | 0.00 | 79 | 1011.1 |
| 20260505034519 | 13 | 185 | 0.0 | 3.2 | 0.00 | 0.00 | 0.00 | 78 | 1011.0 |
| 20260505033519 | 13 | 163 | 0.0 | 3.2 | 0.00 | 0.00 | 0.00 | 78 | 1011.0 |
| 20260505032519 | 13 | 186 | 0.0 | 3.2 | 0.00 | 0.00 | 0.00 | 77 | 1011.1 |
| 20260505031519 | 13 | 208 | 0.0 | 3.2 | 0.00 | 0.00 | 0.00 | 76 | 1011.1 |
| 20260505030519 | 13 | 0.0 | 0.0 | 0.00 | 0.00 | 0.00 | 75 | 1011.2 | |
| 20260505025516 | 13 | 206 | 0.0 | 3.2 | 0.00 | 0.00 | 0.00 | 75 | 1011.2 |
| 20260505024520 | 13 | 219 | 0.0 | 3.2 | 0.00 | 0.00 | 0.00 | 74 | 1011.2 |
| 20260505023520 | 14 | 208 | 0.0 | 3.2 | 0.00 | 0.00 | 0.00 | 73 | 1011.2 |
| 20260505022520 | 14 | 167 | 0.0 | 1.6 | 0.00 | 0.00 | 0.00 | 73 | 1011.2 |
| 20260505021520 | 14 | 193 | 0.0 | 3.2 | 0.00 | 0.00 | 0.00 | 72 | 1011.3 |
| 20260505020517 | 15 | 190 | 1.6 | 4.8 | 0.00 | 0.00 | 0.00 | 72 | 1011.2 |
| 20260505015517 | 15 | 201 | 0.0 | 4.8 | 0.00 | 0.00 | 0.00 | 71 | 1011.2 |
| 20260505014521 | 15 | 190 | 0.0 | 4.8 | 0.00 | 0.00 | 0.00 | 70 | 1011.2 |
| 20260505013521 | 15 | 194 | 1.6 | 4.8 | 0.00 | 0.00 | 0.00 | 70 | 1011.1 |
| 20260505012518 | 15 | 184 | 0.0 | 4.8 | 0.00 | 0.00 | 0.00 | 69 | 1011.1 |
| 20260505011518 | 16 | 168 | 1.6 | 4.8 | 0.00 | 0.00 | 0.00 | 67 | 1010.9 |
| 20260505010519 | 16 | 185 | 1.6 | 4.8 | 0.00 | 0.00 | 0.00 | 66 | 1010.8 |
| 20260505005519 | 16 | 188 | 1.6 | 4.8 | 0.00 | 0.00 | 0.00 | 63 | 1010.7 |
| 20260505004519 | 17 | 181 | 1.6 | 3.2 | 0.00 | 0.00 | 0.00 | 61 | 1010.6 |
| 20260505003520 | 17 | 172 | 1.6 | 8.0 | 0.00 | 0.00 | 0.00 | 59 | 1010.5 |
| 20260505002520 | 17 | 191 | 1.6 | 6.4 | 0.00 | 0.00 | 0.00 | 57 | 1010.3 |
| 20260505001519 | 18 | 186 | 1.6 | 3.2 | 0.00 | 0.00 | 0.00 | 55 | 1010.2 |
| 20260505000517 | 18 | 187 | 1.6 | 4.8 | 0.00 | 0.00 | 0.00 | 52 | 1010.0 |
| 20260504235516 | 19 | 210 | 0.0 | 3.2 | 0.00 | 0.00 | 0.00 | 48 | 1009.9 |
| 20260504234517 | 20 | 158 | 0.0 | 3.2 | 0.00 | 0.00 | 0.00 | 46 | 1009.8 |
| 20260504233520 | 20 | 0.0 | 0.0 | 0.00 | 0.00 | 0.00 | 44 | 1009.7 | |
| 20260504232521 | 20 | 248 | 1.6 | 4.8 | 0.00 | 0.00 | 0.00 | 41 | 1009.6 |
| 20260504231520 | 21 | 245 | 1.6 | 4.8 | 0.00 | 0.00 | 0.00 | 40 | 1009.6 |
| 20260504230517 | 21 | 223 | 1.6 | 4.8 | 0.00 | 0.00 | 0.00 | 39 | 1009.6 |
| 20260504225518 | 21 | 249 | 1.6 | 6.4 | 0.00 | 0.00 | 0.00 | 38 | 1009.5 |
| 20260504224538 | 21 | 235 | 3.2 | 8.0 | 0.00 | 0.00 | 0.00 | 37 | 1009.4 |
| 20260504223518 | 22 | 241 | 4.8 | 8.0 | 0.00 | 0.00 | 0.00 | 38 | 1009.5 |
| 20260504222519 | 22 | 228 | 3.2 | 9.7 | 0.00 | 0.00 | 0.00 | 37 | 1009.5 |
| 20260504221539 | 22 | 245 | 3.2 | 8.0 | 0.00 | 0.00 | 0.00 | 36 | 1009.5 |
| 20260504220519 | 22 | 237 | 4.8 | 11.3 | 0.00 | 0.00 | 0.00 | 36 | 1009.5 |
| 20260504215522 | 22 | 217 | 4.8 | 11.3 | 0.00 | 0.00 | 0.00 | 35 | 1009.4 |
| 20260504214539 | 22 | 273 | 1.6 | 6.4 | 0.00 | 0.00 | 0.00 | 35 | 1009.4 |
| 20260504213520 | 22 | 238 | 3.2 | 9.7 | 0.00 | 0.00 | 0.00 | 35 | 1009.3 |
| 20260504212520 | 23 | 203 | 4.8 | 14.5 | 0.00 | 0.00 | 0.00 | 35 | 1009.3 |
| 20260504211520 | 23 | 248 | 3.2 | 8.0 | 0.00 | 0.00 | 0.00 | 35 | 1009.4 |
| 20260504210517 | 23 | 242 | 3.2 | 6.4 | 0.00 | 0.00 | 0.00 | 35 | 1009.4 |
| 20260504205517 | 23 | 286 | 4.8 | 9.7 | 0.00 | 0.00 | 0.00 | 36 | 1009.3 |
| 20260504204541 | 23 | 209 | 3.2 | 9.7 | 0.00 | 0.00 | 0.00 | 35 | 1009.3 |
| 20260504203521 | 23 | 244 | 1.6 | 9.7 | 0.00 | 0.00 | 0.00 | 35 | 1009.2 |
| 20260504202518 | 23 | 183 | 3.2 | 11.3 | 0.00 | 0.00 | 0.00 | 35 | 1009.3 |
| 20260504201519 | 23 | 213 | 3.2 | 12.9 | 0.00 | 0.00 | 0.00 | 34 | 1009.4 |
| 20260504200518 | 23 | 241 | 3.2 | 6.4 | 0.00 | 0.00 | 0.00 | 35 | 1009.5 |
| 20260504195519 | 23 | 249 | 4.8 | 11.3 | 0.00 | 0.00 | 0.00 | 34 | 1009.4 |
| 20260504194516 | 23 | 235 | 3.2 | 8.0 | 0.00 | 0.00 | 0.00 | 34 | 1009.5 |
| 20260504193516 | 23 | 211 | 3.2 | 8.0 | 0.00 | 0.00 | 0.00 | 35 | 1009.7 |
| 20260504192519 | 23 | 252 | 4.8 | 9.7 | 0.00 | 0.00 | 0.00 | 35 | 1009.8 |
| 20260504191519 | 23 | 241 | 6.4 | 11.3 | 0.00 | 0.00 | 0.00 | 35 | 1009.9 |
| 20260504190520 | 23 | 262 | 3.2 | 8.0 | 0.00 | 0.00 | 0.00 | 36 | 1010.2 |
| 20260504185520 | 22 | 276 | 3.2 | 8.0 | 0.00 | 0.00 | 0.00 | 36 | 1010.3 |
| 20260504184537 | 22 | 240 | 4.8 | 11.3 | 0.00 | 0.00 | 0.00 | 36 | 1010.4 |
| 20260504183520 | 22 | 246 | 3.2 | 8.0 | 0.00 | 0.00 | 0.00 | 36 | 1010.6 |
| 20260504182520 | 22 | 238 | 4.8 | 8.0 | 0.00 | 0.00 | 0.00 | 35 | 1010.7 |
| 20260504181517 | 22 | 242 | 3.2 | 8.0 | 0.00 | 0.00 | 0.00 | 36 | 1010.9 |
| 20260504180638 | 22 | 232 | 4.8 | 11.3 | 0.00 | 0.00 | 0.00 | 36 | 1011.0 |
| 20260504175517 | 22 | 235 | 4.8 | 11.3 | 0.00 | 0.00 | 0.00 | 36 | 1011.1 |
| 20260504174521 | 22 | 261 | 3.2 | 11.3 | 0.00 | 0.00 | 0.00 | 37 | 1011.2 |
| 20260504173518 | 22 | 242 | 4.8 | 12.9 | 0.00 | 0.00 | 0.00 | 37 | 1011.3 |
| 20260504172518 | 22 | 261 | 3.2 | 9.7 | 0.00 | 0.00 | 0.00 | 38 | 1011.5 |
| 20260504171518 | 21 | 238 | 3.2 | 11.3 | 0.00 | 0.00 | 0.00 | 38 | 1011.7 |
| 20260504170539 | 21 | 268 | 3.2 | 11.3 | 0.00 | 0.00 | 0.00 | 38 | 1011.8 |
| 20260504150518 | 18 | 242 | 3.2 | 6.4 | 0.00 | 0.00 | 0.00 | 50 | 1013.3 |
| 20260504140559 | 16 | 251 | 4.8 | 8.0 | 0.00 | 0.00 | 0.00 | 54 | 1013.8 |
| 20260504130517 | 13 | 246 | 3.2 | 6.4 | 0.00 | 0.00 | 0.00 | 65 | 1014.4 |
| 20260504110519 | 4 | 197 | 0.0 | 1.6 | 0.00 | 0.00 | 0.00 | 89 | 1015.6 |
| 20260504100517 | 3 | 0.0 | 0.0 | 0.00 | 0.00 | 0.00 | 89 | 1015.6 | |
| 20260504081519 | 3 | 0.0 | 0.0 | 0.00 | 0.00 | 0.00 | 85 | 1015.5 | |
| 20260504080517 | 3 | 0.0 | 0.0 | 0.00 | 0.00 | 0.00 | 84 | 1015.4 | |
| 20260504050520 | 5 | 0.0 | 0.0 | 0.00 | 0.00 | 0.00 | 78 | 1014.8 | |
| 20260504045517 | 5 | 0.0 | 0.0 | 0.00 | 0.00 | 0.00 | 77 | 1014.7 | |
| 20260504044517 | 5 | 0.0 | 0.0 | 0.00 | 0.00 | 0.00 | 73 | 1014.7 | |
| 20260504043521 | 6 | 0.0 | 0.0 | 0.00 | 0.00 | 0.00 | 70 | 1014.6 | |
| 20260504042520 | 6 | 0.0 | 0.0 | 0.00 | 0.00 | 0.00 | 70 | 1014.4 | |
| 20260504041518 | 6 | 0.0 | 0.0 | 0.00 | 0.00 | 0.00 | 70 | 1014.3 | |
| 20260504040518 | 6 | 0.0 | 0.0 | 0.00 | 0.00 | 0.00 | 69 | 1014.3 |